Location: Danville Conservation Area
(38.8674°N, 91.5143°W)
Time: 01:36:41
(UTC-06:00)

Envisat - Pass Details

Date: 04 December 2021
Orbit: 764 x 766 km, 98.2° (Epoch: 23 January)

Event Time Altitude Azimuth Distance (km) Brightness Sun altitude
Rises 06:13:48 0° 357° (N) 3,240 6.0 -10.6°
Reaches altitude 10° 06:16:35 10° 343° (NNW) 2,309 5.1 -10.1°
Maximum altitude 06:20:21 22° 294° (WNW) 1,648 4.1 -9.4°
Drops below altitude 10° 06:24:07 10° 246° (WSW) 2,297 5.1 -8.7°
Sets 06:26:53 0° 231° (SW) 3,219 5.9 -8.2°
